{"data":{"norad_id":65407,"intl_designator":"2025-192D","name":"STARLINK-35035","alt_names":[],"object_type":"PAYLOAD","status":"ACTIVE","operator":null,"country":"US","launch_date":"2025-08-31","launch_site_code":"AFETR","launch_vehicle":null,"mission":null,"orbit_class":"UNKNOWN","rcs_meters":null,"size_class":null,"mass_kg":null,"dimensions":null,"purposes":["comms"],"wikipedia_slug":null,"has_3d_model":false,"image_url":null,"decayed_at":null,"tle_current":{"epoch":"2026-05-24T23:27:18.806400Z","epoch_age_seconds":67186,"freshness":"FRESH","line1":"1 65407U 25192D   26144.97730100  .00020046  00000+0  68703-3 0  9993","line2":"2 65407  53.1573 238.0448 0001693  86.0111 274.1083 15.30203278 41071","mean_motion":15.30203278,"eccentricity":0.0001693,"inclination_deg":53.1573,"raan_deg":238.0448,"arg_perigee_deg":86.0111,"mean_anomaly_deg":274.1083,"bstar":0.00068703,"rev_number":4107,"period_min":94.105144114062,"perigee_km":474.04501107133,"apogee_km":476.36555276799,"semimajor_km":6853.3422819197,"source":"CELESTRAK","updated_at":"2026-05-25T13:38:20.799855Z"}}}